ATLAS 5 CENTAUR DEB, 45474

Orbit data source: Space-Track

ATLAS 5 CENTAUR DEB, 45474 is space debris in HEO originally from a launch on Wed, 17 Oct 2018 UTC launched from the Air Force Eastern Test Range (AFETR). Debris objects in space refer to the collection of defunct objects orbiting the Earth. Examples of debris include non-operational satellites, rocket bodies, and fragments generated from explosions, collisions, or faulty payload assembly.

Loading next visibility...
Identifier
45474, 2018-079BW
Orbit
HEO
Country
Flag of USUS
Related business
Flag of USUnited Launch Alliance/Lockheed Martin (US)
Manufacturer
ULA Decatur
Mission
Spacecraft
Bus & Motor
Unknown
Mass
Unknown
Launch date (UTC)
2018-10-17 (7 years ago)
Launch vehicle
Unknown
Launch site
Air Force Eastern Test Range (AFETR)
Object type
Payload
Rocket body
Debris
Shape & HBR
Unknown shape, 1.1 m
Radar Cross Section
RCS unknown

Expand to show TLE details & history
Last TLE update: 2 days ago

TLE from 2 days ago
0 ATLAS 5 CENTAUR DEB
1 45474U 18079BW  25287.16973771 -.00000065  00000-0  00000-0 0  9996
2 45474  12.6676  80.7123 4504144 218.2426  99.2488  1.74207196 38707
Epoch: 2025-10-14T04:04Z
TLE epoch observation values (Epoch: 2025-10-14T04:04:25.338Z)
Latitude
-0.00002°
Longitude
-3.37029°
Altitude
29,591.731 km
Speed
2.916 km/s
True Right ascension
05h 22m 47s
True Declination
0° 00' 00"
Sunlit
Object was in daylight at epoch
Visualization orbit readout
Latitude
Unknown
Longitude
Unknown
Altitude
Unknown
Speed
Unknown
Apparent Right ascension
Unknown
Apparent Declination
Unknown
Sunlit
N/A
Visualization observer readout
Local Sidereal Time
18:36:56
Azimuth
Unknown
Elevation
Unknown
Doppler factor
Unknown
Orbital elements
Apogee altitude
35,941.907 km
Perigee altitude
9,657.616 km
Semi-major axis
29,177.899 km
Eccentricity
0.45041
Inclination
12.6676°
RAAN
80.7123°
Arg. of periapsis
218.2426°
True anomaly
141.81386°
Mean anomaly
99.2488°
Eccentric anomaly
121.29975°
Mean motion
0.43547 °/min
Orbital period
826.69 mins
BSTAR
0
Loading maneuver chart data...
Computing Atmospheric mass density...

Documentation

Showing up to 5 results
|